Date,TemperatureHighF,TemperatureAvgF,TemperatureLowF,DewpointHighF,DewpointAvgF,DewpointLowF,HumidityHigh,HumidityAvg,HumidityLow,PressureMaxIn,PressureMinIn,WindSpeedMaxMPH,WindSpeedAvgMPH,GustSpeedMaxMPH,PrecipitationSumIn
2013-1-1,42,41,40,31,31,30,71,69,66,29.99,29.95,16,2,17,0.00
2013-1-2,35,29,27,18,16,16,64,60,50,30.23,30.11,12,0,12,0.00
2013-1-3,34,29,22,23,18,14,77,64,45,30.25,30.14,15,1,15,0.00
2013-1-4,39,35,30,26,24,21,76,64,54,30.19,30.07,30,3,30,0.00
2013-1-5,42,34,28,27,23,21,82,65,48,30.38,30.12,21,2,21,0.00
2013-1-6,50,38,31,36,30,24,88,72,47,30.27,30.03,13,0,15,0.00
2013-1-7,49,39,26,33,28,21,81,65,49,30.45,30.11,21,2,21,0.00
2013-1-8,52,37,24,37,29,20,89,75,51,30.48,30.39,12,0,13,0.00
2013-1-9,58,48,34,48,39,29,91,73,55,30.41,30.20,17,1,18,0.00
2013-1-10,51,43,33,36,30,26,78,61,44,30.57,30.33,18,2,19,0.00
2013-1-11,52,42,31,50,37,25,91,83,72,30.52,30.08,17,0,17,0.20
2013-1-12,55,48,44,50,45,41,91,88,80,30.19,30.08,16,1,16,0.01
2013-1-13,54,47,42,52,45,39,92,91,89,30.19,30.04,14,1,14,0.01
2013-1-14,60,54,45,57,50,41,92,87,72,30.25,30.00,23,1,23,0.07
2013-1-15,45,39,36,41,36,33,90,89,85,30.35,30.15,19,4,19,0.63
2013-1-16,44,40,36,41,37,33,91,90,89,30.16,29.84,20,3,20,0.43
2013-1-17,42,40,37,40,36,33,92,86,75,30.13,29.98,10,0,10,0.07
2013-1-18,37,32,22,33,21,13,85,68,42,30.54,30.07,28,4,28,0.05
2013-1-19,54,40,24,34,25,18,81,58,28,30.49,30.02,23,4,23,0.00
2013-1-20,56,46,35,34,26,14,58,47,32,30.08,29.80,27,6,27,0.00
2013-1-21,38,32,24,26,16,9,84,55,37,30.15,29.79,25,3,25,0.00
2013-1-22,26,20,15,21,4,-1,80,50,40,30.29,29.89,31,7,31,0.00
2013-1-23,23,17,11,5,1,-2,57,50,40,30.34,30.19,26,3,26,0.00
2013-1-24,26,20,16,5,2,-2,59,47,33,30.48,30.13,34,6,34,0.00
2013-1-25,24,19,14,15,7,2,82,60,42,30.49,30.08,12,0,12,0.00
2013-1-26,29,21,10,16,12,5,83,68,50,30.43,30.08,26,4,28,0.03
2013-1-27,36,25,16,18,12,7,76,61,40,30.59,30.43,14,1,16,0.01
2013-1-28,42,32,19,38,28,13,87,83,77,30.54,30.06,16,1,16,0.06
2013-1-29,58,45,40,50,40,36,90,83,69,30.17,30.05,8,0,11,0.00
2013-1-30,60,52,45,56,49,42,92,89,81,30.07,29.44,37,6,37,0.00
2013-1-31,60,46,31,57,32,10,91,60,39,29.92,29.21,40,11,40,0.41
2013-2-1,32,28,20,25,13,6,86,57,41,30.33,29.84,32,6,37,0.05
2013-2-2,29,22,12,23,11,2,84,61,49,30.38,30.07,17,2,17,0.00
2013-2-3,27,26,24,23,22,20,86,85,84,30.07,29.94,0,0,4,0.00
2013-2-4,31,29,26,23,17,12,75,62,51,30.08,29.97,25,2,25,0.01
2013-2-5,42,35,30,32,28,22,86,77,59,29.97,29.88,13,1,13,0.00
2013-2-6,38,32,28,30,28,24,88,85,65,30.14,29.92,26,2,26,0.00
2013-2-7,41,38,36,34,28,25,76,69,65,30.38,30.24,15,5,15,0.00
2013-2-8,46,41,34,44,38,31,91,87,76,30.24,29.57,29,10,31,1.70
2013-2-9,37,31,27,31,21,14,88,67,51,30.37,29.77,35,10,40,0.01
2013-2-10,39,30,19,31,16,9,79,59,38,30.51,30.34,16,2,17,0.00
2013-2-11,55,47,37,52,44,31,92,89,80,30.34,29.69,28,3,28,0.41
2013-2-12,52,44,32,48,32,26,88,64,44,30.00,29.76,24,3,31,0.00
2013-2-13,44,36,27,34,30,23,88,80,68,29.99,29.63,25,4,25,0.32
2013-2-14,47,37,33,38,33,30,90,86,68,30.01,29.71,12,2,12,0.07
2013-2-15,57,47,41,43,38,35,85,71,50,30.05,29.94,15,2,15,0.01
2013-2-16,41,37,29,34,31,25,88,82,72,29.98,29.74,24,6,24,0.12
2013-2-17,33,29,25,25,12,3,84,50,40,30.09,29.71,36,10,37,0.00
2013-2-18,36,28,20,21,11,3,66,50,40,30.34,30.09,30,5,31,0.00
2013-2-19,49,45,33,46,41,21,89,86,61,30.25,29.73,19,4,20,0.12
2013-2-20,37,31,26,21,14,10,56,50,44,30.10,29.93,32,8,38,0.00
2013-2-21,37,29,23,18,14,11,65,54,45,30.30,30.07,32,7,32,0.00
2013-2-22,38,32,26,32,24,15,87,71,59,30.42,30.24,17,3,17,0.08
2013-2-23,47,43,35,45,41,32,92,91,87,30.25,29.76,13,3,13,0.22
2013-2-24,51,41,32,43,32,20,91,73,51,30.05,29.75,33,7,33,0.01
2013-2-25,48,35,28,29,24,20,82,64,46,30.25,30.05,19,2,19,0.00
2013-2-26,48,38,25,46,33,21,91,84,74,30.26,29.70,30,6,30,1.06
2013-2-27,57,49,44,49,44,38,92,82,57,29.71,29.50,25,3,25,0.03
2013-2-28,48,42,37,40,35,30,90,78,57,29.70,29.60,24,1,24,0.13
2013-3-1,45,40,33,33,30,27,84,69,56,29.83,29.67,27,3,27,0.00
2013-3-2,43,37,30,27,25,23,76,63,52,29.84,29.75,21,3,21,0.00
2013-3-3,39,34,31,23,20,17,67,57,45,29.83,29.73,29,6,31,0.00
2013-3-4,41,36,31,24,21,16,65,55,47,29.98,29.82,34,10,34,0.00
2013-3-5,48,36,28,33,24,20,84,64,47,30.07,29.91,17,2,22,0.00
2013-3-6,41,39,34,38,35,31,88,85,75,29.92,29.56,54,19,56,1.11
2013-3-7,48,40,34,33,31,29,88,71,55,30.08,29.82,34,13,34,0.04
2013-3-8,41,36,31,36,31,26,87,82,66,30.19,30.03,27,9,27,0.09
2013-3-9,59,43,30,32,27,21,84,57,27,30.32,30.18,24,5,24,0.00
2013-3-10,46,37,26,39,31,22,89,81,70,30.40,30.31,19,2,19,0.00
2013-3-11,56,45,32,49,41,28,91,85,74,30.33,30.08,21,2,21,0.01
2013-3-12,56,52,43,53,48,36,92,87,72,30.09,29.73,25,5,33,0.56
2013-3-13,52,42,35,36,31,25,84,67,43,29.98,29.87,22,3,26,0.00
2013-3-14,43,37,30,25,18,14,65,48,36,30.05,29.95,33,6,33,0.00
2013-3-15,52,40,28,31,21,13,71,50,34,30.08,29.80,24,3,26,0.00
2013-3-16,44,39,34,35,31,27,84,73,57,29.92,29.73,23,4,23,0.00
2013-3-17,42,37,32,32,26,21,92,67,47,30.31,29.91,21,3,21,0.00
2013-3-18,48,38,31,45,29,20,91,70,56,30.37,29.87,22,4,22,0.74
2013-3-19,54,47,41,46,40,24,91,79,51,29.88,29.72,24,3,24,0.20
2013-3-20,50,41,28,30,22,16,75,50,29,29.98,29.81,25,4,25,0.00
2013-3-21,42,34,29,33,24,11,85,66,46,29.84,29.68,23,6,23,0.07
2013-3-22,42,35,28,23,19,12,64,53,44,29.93,29.83,32,5,33,0.00
2013-3-23,44,40,36,23,22,21,55,50,45,29.97,29.93,11,0,12,0.00
2013-3-24,46,36,26,29,23,19,84,60,38,30.00,29.67,19,1,19,0.00
2013-3-25,39,35,33,35,31,28,90,87,69,29.70,29.42,26,6,26,0.91
2013-3-26,49,41,34,39,33,31,90,76,56,29.92,29.65,18,1,18,0.07
2013-3-27,52,44,34,33,29,25,80,59,40,30.05,29.92,31,4,31,0.00
2013-3-28,49,42,35,32,29,26,74,60,46,30.16,30.03,23,4,23,0.00
2013-3-29,56,46,35,34,29,26,74,55,39,30.20,30.11,22,3,23,0.00
2013-3-30,58,45,29,35,29,24,86,58,30,30.22,30.12,18,2,20,0.00
2013-3-31,54,46,37,49,40,32,91,80,61,30.18,29.74,18,2,19,0.20
2013-4-1,67,52,42,50,41,20,90,68,42,29.93,29.68,28,3,30,0.03
2013-4-2,48,40,28,23,18,14,71,43,31,30.15,29.93,25,4,26,0.00
2013-4-3,50,41,29,21,15,9,60,39,27,30.34,30.13,28,5,29,0.00
2013-4-4,46,38,26,32,21,12,73,53,33,30.44,30.14,22,2,22,0.01
2013-4-5,62,49,38,48,34,24,91,63,27,30.15,29.77,22,4,22,0.97
2013-4-6,50,43,36,30,25,16,76,51,31,30.35,29.99,24,5,25,0.00
2013-4-7,56,47,32,46,38,27,87,72,60,30.35,30.05,27,4,27,0.00
2013-4-8,74,60,50,54,49,44,82,69,46,30.11,30.02,17,2,17,0.00
2013-4-9,83,70,57,57,54,51,82,61,40,30.06,29.96,20,3,20,0.00
2013-4-10,89,73,59,61,56,50,78,58,37,29.97,29.80,30,3,30,0.00
2013-4-11,74,58,48,59,51,45,90,79,59,29.95,29.84,27,6,27,0.00
2013-4-12,66,54,48,63,51,45,92,91,85,29.91,29.64,23,6,25,0.20
2013-4-13,63,52,43,48,43,39,91,73,46,29.98,29.69,19,3,20,0.03
2013-4-14,65,55,41,50,40,33,90,62,35,30.20,29.98,29,2,32,0.00
2013-4-15,56,51,47,45,43,39,82,74,66,30.37,30.16,19,2,19,0.02
2013-4-16,66,57,48,55,50,44,89,78,66,30.37,30.17,21,2,21,0.01
2013-4-17,72,58,50,61,50,42,88,75,59,30.29,30.13,16,1,18,0.00
2013-4-18,66,57,49,58,52,42,90,82,71,30.32,30.11,16,1,16,0.00
2013-4-19,69,61,57,63,58,54,91,89,78,30.11,29.71,33,4,33,0.19
2013-4-20,62,54,47,60,40,28,92,64,36,30.31,29.73,25,5,26,0.38
2013-4-21,52,45,37,32,28,22,61,51,35,30.60,30.31,22,4,22,0.00
2013-4-22,52,49,47,40,38,38,72,69,61,30.54,30.46,30,15,31,0.00
2013-4-23,50,46,44,43,41,38,85,81,72,30.46,30.12,26,9,26,0.00
2013-4-24,62,52,39,52,46,34,90,81,66,30.14,29.90,34,3,34,0.00
2013-4-25,67,55,45,54,38,30,88,56,33,30.31,29.92,31,4,31,0.02
2013-4-26,68,54,38,44,35,26,88,55,27,30.43,30.31,24,2,24,0.00
2013-4-27,65,52,38,43,38,32,87,61,34,30.44,30.33,18,1,18,0.00
2013-4-28,68,54,39,50,39,29,91,64,29,30.34,30.22,12,0,12,0.00
2013-4-29,58,55,54,55,52,49,91,89,79,30.24,30.14,13,1,14,1.01
2013-4-30,63,56,51,52,50,44,92,79,67,30.30,30.14,27,6,27,0.04
2013-5-1,62,52,44,49,44,39,88,77,48,30.46,30.29,24,5,24,0.00
2013-5-2,62,53,43,49,44,38,90,72,51,30.46,30.34,19,3,19,0.00
2013-5-3,57,52,44,46,43,39,87,73,57,30.44,30.35,29,6,29,0.00
2013-5-4,62,52,44,49,43,40,89,74,58,30.37,30.25,18,5,25,0.00
2013-5-5,58,50,46,46,42,38,86,73,62,30.27,30.21,24,6,24,0.00
2013-5-6,59,53,46,53,49,42,90,87,79,30.23,30.13,22,6,22,0.00
2013-5-7,62,56,53,58,54,50,92,91,85,30.13,30.02,20,6,20,0.36
2013-5-8,71,61,56,65,56,53,92,84,65,30.04,29.98,15,1,15,0.04
2013-5-9,74,62,57,62,56,53,92,82,59,30.01,29.92,16,0,17,0.07
2013-5-10,80,68,56,64,58,52,92,74,50,30.03,29.91,15,1,15,0.00
2013-5-11,74,66,62,68,62,57,92,86,74,29.95,29.73,27,2,27,0.93
2013-5-12,68,62,50,61,48,32,91,66,34,29.99,29.71,26,3,26,0.11
2013-5-13,61,51,38,44,33,27,88,54,34,30.13,29.99,24,3,24,0.00
2013-5-14,61,50,36,45,34,29,81,57,37,30.19,30.08,22,2,23,0.00
2013-5-15,72,63,53,59,53,45,82,72,61,30.12,29.73,19,2,21,0.00
2013-5-16,84,74,62,67,58,41,89,64,27,29.86,29.72,15,1,15,0.00
2013-5-17,78,67,56,60,51,42,84,60,34,30.21,29.86,15,1,15,0.00
2013-5-18,70,62,58,56,54,47,89,74,60,30.30,30.20,15,0,15,0.08
2013-5-19,63,61,58,61,58,55,92,91,89,30.27,30.15,15,1,19,0.38
2013-5-20,63,62,62,60,60,60,92,92,92,30.18,30.14,8,1,8,0.00
2013-5-22,84,74,68,73,67,64,89,79,68,29.94,29.89,21,3,21,0.00
2013-5-23,78,70,64,71,66,62,91,86,75,29.96,29.79,21,3,21,0.03
2013-5-24,68,60,47,66,55,39,92,86,68,30.03,29.73,27,4,28,0.45
2013-5-25,63,55,47,43,39,33,77,58,37,30.10,29.99,35,6,35,0.01
2013-5-26,72,59,45,44,39,36,80,53,31,30.21,30.08,25,2,26,0.00
2013-5-27,75,61,43,54,45,35,92,62,27,30.28,30.19,16,0,16,0.00
2013-5-28,66,61,54,61,57,48,90,86,78,30.24,30.12,19,1,19,0.37
2013-5-29,89,75,63,72,65,58,88,73,55,30.14,30.09,21,2,21,0.00
2013-5-30,92,79,69,73,67,63,85,69,43,30.19,30.12,14,1,14,0.00
2013-5-31,90,78,66,72,67,62,91,71,49,30.17,30.06,20,1,22,0.00
2013-6-1,88,78,70,73,68,63,86,73,60,30.08,29.97,21,2,21,0.00
2013-6-2,86,76,67,71,67,63,90,76,60,29.97,29.86,23,2,23,0.32
2013-6-3,76,72,69,72,69,66,92,90,86,29.91,29.82,14,0,14,1.04
2013-6-4,78,68,58,66,54,45,90,64,39,30.12,29.89,17,2,18,0.00
2013-6-5,74,64,52,58,54,48,88,71,44,30.20,30.10,9,0,9,0.00
2013-6-6,73,65,54,64,60,51,92,83,70,30.14,29.96,16,1,19,0.01
2013-6-7,72,68,66,69,66,62,92,91,87,29.96,29.52,18,1,18,1.92
2013-6-8,77,70,63,70,65,61,92,86,74,30.09,29.52,21,2,21,0.38
2013-6-9,81,72,62,66,63,59,92,76,54,30.20,30.09,10,0,10,0.01
2013-6-10,74,70,67,71,67,63,92,91,87,30.17,29.85,20,2,21,0.64
2013-6-11,85,76,0,72,69,66,92,79,59,29.85,29.72,21,2,22,0.12
2013-6-12,86,77,70,73,66,61,87,71,53,29.87,29.80,19,2,20,0.00
2013-6-13,87,72,67,75,66,60,91,83,61,29.87,29.43,31,1,31,0.74
2013-6-14,74,63,56,65,57,53,91,81,56,29.95,29.48,27,4,27,0.26
2013-6-15,82,70,58,65,60,55,91,73,47,30.05,29.94,18,1,18,0.00
2013-6-16,88,74,62,72,66,58,92,76,54,30.04,29.87,21,2,23,0.00
2013-6-17,88,76,68,74,69,64,92,78,58,29.96,29.90,15,1,15,0.01
2013-6-18,82,71,65,74,67,62,91,86,75,29.94,29.80,14,1,14,1.46
2013-6-19,73,67,59,64,60,54,92,79,58,30.18,29.85,15,2,16,0.00
2013-6-20,78,68,54,63,55,48,91,68,38,30.31,30.18,13,0,13,0.00
2013-6-21,77,68,54,64,58,50,91,70,49,30.34,30.28,9,0,10,0.00
2013-6-22,82,76,67,67,61,56,74,61,50,30.29,30.18,12,0,12,0.00
2013-6-23,82,72,63,74,67,57,91,83,75,30.23,30.09,26,2,26,0.00
2013-6-24,93,83,75,78,74,71,90,75,54,30.13,30.01,12,2,13,0.00
2013-6-25,93,86,72,77,73,60,91,67,52,30.03,29.89,15,2,15,0.00
2013-6-27,80,79,77,73,72,71,85,80,77,29.69,29.64,12,3,13,0.01
2013-6-28,87,80,73,77,72,69,92,80,69,29.65,29.51,16,1,16,0.03
2013-6-29,84,76,70,75,70,67,92,84,73,29.74,29.51,18,1,18,0.14
2013-6-30,80,75,72,74,72,69,92,88,80,29.91,29.73,18,1,18,0.01
2013-7-1,77,74,73,74,72,71,92,91,90,30.06,29.90,17,2,18,0.41
2013-7-2,84,76,73,76,72,69,92,87,76,30.23,30.05,20,3,21,0.02
2013-7-3,85,78,71,77,73,68,92,85,75,30.28,30.20,21,1,21,0.01
2013-7-4,88,79,73,78,74,71,92,85,67,30.29,30.25,14,1,19,0.00
2013-7-5,92,84,77,77,74,72,86,75,58,30.22,30.16,15,1,15,0.00
2013-7-6,96,86,76,79,75,71,90,73,54,30.20,30.08,18,1,20,0.00
2013-7-7,95,85,74,78,75,70,90,73,57,30.13,29.99,25,2,25,0.00
2013-7-8,90,81,73,74,72,69,88,74,59,30.10,30.02,14,1,14,0.04
2013-7-9,90,81,73,78,74,69,92,81,63,30.11,30.02,14,1,14,0.06
2013-7-10,89,79,72,79,73,68,92,84,66,30.06,29.88,19,1,19,0.25
2013-7-11,82,77,72,76,72,68,91,85,79,29.93,29.86,19,1,19,0.17
2013-7-12,74,72,70,72,69,67,92,91,88,30.04,29.91,23,2,23,1.15
2013-7-13,86,77,70,79,73,67,92,87,72,30.31,30.03,18,1,18,0.00
2013-7-14,92,82,76,77,74,70,92,79,54,30.36,30.29,13,0,13,0.00
2013-7-15,94,84,74,80,75,70,92,76,54,30.31,30.17,14,1,15,0.00
2013-7-16,94,85,75,76,73,68,86,70,50,30.19,30.15,14,1,15,0.00
2013-7-17,96,85,73,79,72,69,92,69,46,30.19,30.10,8,0,8,0.00
2013-7-18,98,87,76,80,76,70,90,74,54,30.12,30.00,13,0,13,0.00
2013-7-19,97,88,80,81,77,73,86,73,57,30.02,29.88,16,1,18,0.00
2013-7-20,94,87,80,80,77,69,83,74,59,29.94,29.79,21,3,21,0.00
2013-7-21,94,81,73,78,74,70,92,79,54,29.96,29.88,13,0,16,0.43
2013-7-22,89,80,74,77,74,70,92,83,66,29.93,29.79,10,0,12,0.00
2013-7-23,90,82,76,80,75,70,91,81,66,29.80,29.61,15,1,15,0.09
2013-7-24,91,81,73,76,71,67,91,74,57,29.89,29.67,16,1,16,0.01
2013-7-25,75,68,64,67,61,57,86,78,66,30.03,29.88,28,6,28,0.02
2013-7-26,83,73,64,69,64,60,86,76,57,30.08,29.99,13,1,13,0.00
2013-7-27,85,74,64,70,66,60,92,77,54,30.09,29.96,10,0,10,0.00
2013-7-28,82,74,65,74,69,62,92,85,74,29.99,29.93,17,1,17,0.00
2013-7-29,88,76,65,72,66,56,92,73,40,30.14,29.96,13,1,14,0.01
2013-7-30,85,72,59,63,59,55,90,66,41,30.20,30.14,15,1,15,0.00
2013-7-31,85,73,60,68,63,56,91,72,54,30.17,30.06,12,0,12,0.00
2013-8-1,80,72,68,70,68,63,92,86,70,30.06,29.83,20,1,21,0.43
2013-8-2,88,77,67,73,67,61,92,74,45,29.97,29.82,14,0,14,0.00
2013-8-3,84,74,68,73,67,64,92,79,58,29.97,29.91,14,0,15,0.00
2013-8-4,85,74,65,67,60,54,91,67,40,29.99,29.87,23,2,23,0.01
2013-8-5,82,71,59,59,55,48,82,61,34,30.08,29.99,16,2,19,0.00
2013-8-6,80,69,60,69,63,55,92,83,66,30.14,30.05,9,0,10,0.09
2013-8-7,78,72,68,71,68,64,91,87,74,30.14,30.08,13,1,19,0.36
2013-8-8,75,75,74,70,70,70,86,85,84,30.09,30.05,16,2,16,0.00
2013-8-9,81,79,78,76,74,74,86,86,84,29.93,29.89,11,2,11,0.01
2013-8-10,88,80,69,74,69,58,89,72,42,30.07,29.92,14,1,14,0.00
2013-8-11,83,74,67,71,67,63,90,79,63,30.14,30.04,13,1,14,0.00
2013-8-12,89,77,68,75,70,64,92,81,60,30.06,29.94,9,0,9,0.13
2013-8-13,86,78,72,78,72,68,92,83,60,29.94,29.73,23,2,23,0.11
2013-8-14,78,70,60,71,57,51,89,66,46,30.08,29.77,23,4,24,0.06
2013-8-15,80,66,54,56,52,49,87,64,39,30.17,30.07,12,1,12,0.00
2013-8-16,81,67,53,63,54,49,92,67,38,30.22,30.14,12,0,12,0.00
2013-8-17,80,69,57,64,59,53,90,72,50,30.28,30.20,18,2,18,0.00
2013-8-18,79,71,65,66,62,57,89,74,59,30.25,30.13,21,3,21,0.00
2013-8-19,78,71,62,67,63,56,90,77,60,30.17,30.08,12,1,12,0.00
2013-8-20,89,77,65,72,68,61,91,76,51,30.17,30.09,12,0,12,0.00
2013-8-21,92,78,68,76,70,64,92,78,54,30.21,30.11,15,1,15,0.00
2013-8-22,88,77,70,77,71,66,92,82,63,30.11,29.93,15,1,15,0.10
2013-8-23,84,75,68,70,66,62,91,75,53,30.09,29.90,17,2,17,0.01
2013-8-24,80,70,61,68,62,56,90,77,58,30.35,30.09,20,3,20,0.00
2013-8-25,84,68,53,66,53,39,91,65,27,30.43,30.30,11,0,11,0.01
2013-8-26,86,74,59,67,62,54,87,70,51,30.31,29.99,19,2,19,0.00
2013-8-27,93,81,72,70,68,66,84,67,45,29.99,29.87,16,2,16,0.00
2013-8-28,84,73,67,76,70,64,92,88,76,29.92,29.83,18,0,18,1.64
2013-8-29,79,73,68,72,68,64,92,85,70,30.04,29.85,25,4,25,0.01
2013-8-30,82,73,66,71,68,63,92,84,67,30.06,29.93,15,1,15,0.00
2013-8-31,88,78,69,76,72,65,91,81,64,29.95,29.84,20,2,21,0.00
2013-9-1,89,80,76,78,74,71,90,83,59,29.88,29.81,15,1,16,0.00
2013-9-2,87,79,74,77,74,72,92,85,65,29.82,29.75,11,0,12,0.02
2013-9-3,90,78,68,78,69,59,92,75,50,29.93,29.74,16,1,16,0.00
2013-9-4,82,71,60,64,58,52,85,68,39,30.05,29.92,15,1,16,0.00
2013-9-5,85,72,61,68,61,49,92,70,53,30.13,29.99,16,1,16,0.00
2013-9-6,77,64,54,55,50,46,81,64,40,30.25,30.13,13,2,15,0.00
2013-9-7,81,65,49,61,52,45,92,68,37,30.16,29.95,11,0,11,0.00
2013-9-8,88,75,63,70,64,51,89,70,54,30.06,29.84,19,2,19,0.00
2013-9-9,76,68,56,64,57,48,85,69,55,30.22,30.06,13,2,13,0.00
2013-9-10,86,77,69,74,70,64,85,78,66,30.22,30.11,15,2,15,0.00
2013-9-11,94,81,72,77,71,67,89,75,57,30.17,30.04,17,1,17,0.00
2013-9-12,90,79,73,75,71,68,89,79,61,30.04,29.73,21,2,21,0.17
2013-9-13,80,73,62,70,63,52,92,75,47,29.88,29.67,18,2,18,0.01
2013-9-14,71,60,50,52,49,44,83,68,49,30.17,29.88,17,3,19,0.00
2013-9-15,76,60,43,58,49,39,90,69,41,30.25,30.13,16,1,19,0.00
2013-9-16,76,66,58,65,58,52,86,76,59,30.21,30.06,20,2,20,0.01
2013-9-17,66,58,47,52,45,40,78,64,45,30.41,30.21,21,6,23,0.00
2013-9-18,70,56,42,51,45,38,89,71,48,30.36,30.22,11,0,11,0.00
2013-9-19,77,60,44,60,50,40,91,72,48,30.22,30.11,11,0,12,0.00
2013-9-20,80,63,49,64,54,45,92,75,52,30.12,30.02,12,0,12,0.00
2013-9-21,80,67,52,69,60,48,92,80,53,30.03,29.72,18,1,18,0.17
2013-9-22,75,66,54,67,56,46,91,73,46,29.92,29.67,20,3,20,0.39
2013-9-23,70,57,46,48,45,41,84,68,44,30.06,29.92,18,2,18,0.00
2013-9-24,73,57,45,53,46,40,84,69,41,30.08,29.93,14,1,14,0.00
2013-9-28,71,63,56,56,54,50,86,72,59,30.26,30.22,20,2,20,0.00
2013-9-29,71,60,50,60,51,45,91,74,48,30.22,30.07,19,2,20,0.01
2013-9-30,75,60,49,59,52,45,91,78,53,30.08,30.01,12,1,13,0.00
2013-10-1,81,65,50,65,56,46,92,76,53,30.05,29.94,15,1,15,0.01
2013-10-2,85,71,60,65,62,57,91,74,51,30.05,29.98,12,1,18,0.01
2013-10-3,80,70,62,66,62,58,90,78,55,30.12,30.05,11,0,12,0.00
2013-10-4,88,72,60,71,62,57,92,76,44,30.09,30.01,12,0,12,0.00
2013-10-5,85,71,65,72,66,61,92,85,63,30.08,30.03,13,1,13,0.00
2013-10-6,84,73,68,74,68,65,92,85,66,30.08,30.01,13,1,13,0.01
2013-10-7,80,71,61,72,66,58,90,86,72,30.03,29.85,28,2,28,0.34
2013-10-8,66,59,52,58,51,47,90,76,60,30.28,30.03,20,3,20,0.00
2013-10-9,64,60,55,56,52,49,87,76,68,30.30,30.19,34,9,34,0.07
2013-10-10,60,60,60,57,56,56,90,89,87,30.19,30.11,28,12,29,0.32
2013-10-21,65,57,49,47,45,41,81,67,43,30.10,30.01,11,0,11,0.00
2013-10-22,68,57,47,56,48,43,91,74,52,30.01,29.79,15,1,15,0.00
2013-10-23,54,49,42,48,43,37,90,80,62,29.84,29.62,12,1,14,0.42
2013-10-24,55,45,39,39,34,28,83,67,42,30.10,29.83,28,2,28,0.01
2013-10-25,55,44,36,37,33,29,79,66,49,30.30,30.10,24,1,24,0.00
2013-10-26,59,46,32,42,34,28,89,66,39,30.30,29.96,21,1,21,0.00
2013-10-27,59,51,37,40,36,30,78,58,40,30.18,29.92,23,1,23,0.00
2013-10-28,64,48,32,49,39,28,89,75,50,30.28,30.16,8,0,8,0.00
2013-10-29,63,52,44,52,44,39,87,78,62,30.37,30.28,15,2,17,0.00
2013-10-30,58,50,44,55,47,40,91,88,83,30.35,30.20,2,0,2,0.03
2013-10-31,71,60,49,62,56,46,92,86,72,30.22,29.88,16,1,18,0.02
2013-11-1,68,65,63,64,61,59,91,88,83,29.89,29.65,22,2,23,0.10
2013-11-2,70,63,54,61,55,45,91,75,60,29.83,29.62,12,0,13,0.03
2013-11-3,55,48,36,46,36,23,83,64,42,30.45,29.83,22,4,22,0.00
2013-11-4,49,40,32,33,27,20,77,61,51,30.63,30.44,20,5,20,0.00
2013-11-5,60,48,37,46,40,31,87,74,61,30.62,30.54,13,0,13,0.00
2013-11-6,64,61,56,54,53,51,86,74,65,30.37,30.23,13,1,13,0.00
2013-11-9,53,49,47,37,33,28,66,55,42,30.27,30.10,14,2,14,0.00
2013-11-12,41,36,31,31,18,15,76,50,42,30.34,30.13,26,9,26,0.00
2013-11-13,31,29,27,16,16,15,61,58,54,30.35,30.34,6,0,6,0.00
2013-11-19,51,44,35,30,26,22,60,52,44,30.37,30.09,24,5,26,0.00
2013-11-20,45,37,32,30,24,21,74,62,48,30.57,30.35,23,4,24,0.00
2013-11-21,57,43,32,42,35,25,85,73,56,30.57,30.40,11,0,11,0.00
2013-11-22,59,52,45,53,48,41,89,86,80,30.40,29.96,9,0,9,0.08
2013-11-23,54,45,34,51,31,12,89,59,33,30.09,29.96,31,5,33,0.01
2013-11-24,34,28,23,14,2,-3,49,35,27,30.48,30.07,39,9,39,0.00
2013-11-25,34,28,21,20,13,7,62,54,40,30.57,30.39,15,1,15,0.00
2013-11-26,43,39,33,39,26,19,85,60,48,30.40,30.14,11,0,11,0.06
2013-11-28,38,31,25,24,20,17,81,66,46,30.52,30.33,19,1,19,0.00
2013-11-29,43,33,25,27,22,18,85,66,43,30.74,30.50,14,2,14,0.00
2013-11-30,28,27,26,18,18,16,68,67,66,30.73,30.71,11,4,13,0.00
2013-12-2,50,40,30,41,35,28,92,81,64,29.97,29.87,4,0,4,0.00
2013-12-3,54,40,29,49,36,27,98,87,62,30.02,29.86,12,0,13,0.00
2013-12-4,56,45,34,51,43,32,99,91,78,30.11,30.01,8,0,9,0.00
2013-12-5,56,52,48,56,52,47,99,97,95,30.11,29.96,17,1,17,0.01
2013-12-6,58,56,52,58,56,52,100,99,98,30.12,29.92,8,0,8,0.04
2013-12-7,57,47,28,57,44,26,99,90,73,30.51,30.03,23,1,23,0.00
2013-12-8,41,30,27,40,27,22,98,89,78,30.58,30.25,18,5,18,0.51
2013-12-9,44,39,34,44,39,34,99,99,98,30.26,30.01,18,2,18,0.99
2013-12-10,34,32,30,34,31,25,98,96,77,30.21,29.90,16,1,16,0.14
2013-12-11,31,30,29,25,24,23,78,76,76,30.29,30.21,12,1,12,0.00
2013-12-12,29,25,21,23,17,12,92,74,56,30.39,30.24,26,8,26,0.00
2013-12-13,39,32,25,25,22,15,90,68,49,30.34,30.20,25,4,25,0.01
2013-12-14,53,38,27,52,36,25,99,91,75,30.39,29.62,20,1,21,0.97
2013-12-15,55,40,32,54,36,24,99,86,69,29.93,29.55,28,5,28,0.11
2013-12-16,36,31,25,28,21,15,81,66,54,30.23,29.92,25,4,25,0.00
2013-12-17,52,37,28,45,32,17,94,81,61,30.21,29.91,16,1,17,0.00
2013-12-18,39,31,24,29,24,20,94,78,54,30.23,29.91,28,3,28,0.03
2013-12-19,52,39,22,36,30,20,94,71,52,30.24,30.08,22,2,22,0.00
2013-12-20,56,51,46,49,41,33,93,70,54,30.13,30.03,20,2,23,0.00
2013-12-21,66,57,51,55,51,45,97,82,66,30.05,29.95,25,2,25,0.00
2013-12-22,67,57,53,64,56,52,99,96,86,30.02,29.92,28,3,28,0.09
2013-12-23,58,54,42,58,53,40,98,96,90,30.15,29.92,15,0,15,0.03
2013-12-24,42,37,26,40,28,15,92,73,56,30.39,30.11,31,6,31,0.01
2013-12-25,33,25,20,18,15,13,87,67,44,30.54,30.38,18,1,19,0.00
2013-12-26,40,29,19,31,23,16,93,81,55,30.42,30.22,17,0,17,0.00
2013-12-27,45,32,22,28,24,20,100,74,45,30.43,30.31,15,0,15,0.02
2013-12-28,55,42,31,35,31,27,90,69,42,30.33,30.12,21,1,21,0.00
2013-12-29,57,45,39,57,41,32,100,87,55,30.12,29.46,33,3,33,1.09
2013-12-30,48,40,31,42,35,25,96,83,67,30.17,29.77,21,2,21,0.01
2013-12-31,41,33,26,32,23,19,78,68,57,30.34,30.10,21,2,21,0.00
2014-1-1,43,31,22,33,24,17,94,77,55,30.43,30.17,16,1,16,0.00
2014-1-2,36,32,27,35,31,25,97,95,92,30.17,29.53,18,5,18,0.00